GFSNW_prec_cthk_072.txt.gz
RH
46 46 54 58 82 84 75 75 67 44 55 70 66 61 52 48 40 40 33 32 34 40 42 50 51 53 67 74 78 74 87 87 79 74 71 83 77 74 72 74 70 61 65 62
54 54 57 77 84 95 91 88 61 61 94 80 64 56 51 48 44 38 40 40 36 33 34 40 49 51 73 64 67 77 86 87 79 76 71 85 84 79 76 76 76 73 83 57
52 70 77 77 88 87 98 98 77 54 85 82 78 65 62 52 51 39 46 42 42 50 41 44 52 76 73 67 61 71 85 85 84 81 85 92 87 75 77 80 89 81 76 63
51 84 84 90 89 90 99 98 74 90 63 70 72 76 83 66 51 46 45 44 43 54 61 53 61 59 78 81 67 69 86 95 94 89 85 85 91 82 79 79 77 75 65 72
64 79 83 90 97 93 99 90 71 79 88 83 69 55 59 64 71 57 62 52 52 50 52 56 68 63 71 69 72 60 85 92 90 81 81 84 97 78 77 81 78 68 61 67
77 75 76 84 93 97 87 84 77 81 78 74 77 83 67 47 52 62 71 80 77 67 67 56 70 81 71 76 72 76 77 88 97 93 93 89 80 82 80 76 70 73 73 76
83 82 74 78 85 86 87 83 85 79 65 75 75 78 83 72 64 56 58 60 70 76 85 67 79 59 49 70 71 67 74 87 95 96 94 89 68 72 71 76 78 74 79 80
95 77 71 66 73 73 79 82 89 82 73 67 63 68 75 85 71 62 56 53 62 77 88 67 60 63 71 59 49 52 64 81 90 97 92 87 76 89 84 76 88 91 85 80
95 96 69 60 56 65 65 72 84 89 83 66 61 69 70 83 85 82 70 70 76 86 72 76 74 66 64 68 56 44 58 75 86 91 92 94 81 87 92 91 98 86 85 78
86 94 82 68 54 52 60 67 78 88 79 74 86 85 87 82 79 83 85 89 82 89 76 80 93 80 75 77 74 67 59 72 82 85 93 71 70 85 81 94 93 91 84 76
88 87 89 85 76 60 51 53 72 79 74 85 81 85 94 91 89 88 93 93 81 77 79 77 78 80 82 78 75 76 68 69 79 75 80 79 77 85 81 89 91 86 79 74
95 95 90 90 89 81 69 53 54 73 94 84 78 80 84 90 94 99 93 98 83 85 83 81 96 86 86 75 76 77 77 60 67 58 57 69 76 78 81 84 83 76 69 65
97 96 96 94 89 86 83 56 58 72 94 90 76 63 74 81 84 92 98 94 92 96 96 95 94 94 84 81 76 86 81 69 77 71 83 78 79 75 78 75 71 70 69 66
96 96 97 98 98 96 96 88 87 88 90 91 73 67 67 67 79 88 91 95 95 96 97 95 98 94 84 86 80 85 82 81 76 90 97 94 94 84 80 74 66 63 59 54
89 95 97 98 98 98 99 98 97 96 80 88 85 70 69 75 67 76 80 85 88 90 97 94 95 92 90 91 82 97 90 91 78 96 93 96 95 88 76 68 64 59 55 53
82 89 92 98 99 98 98 97 98 94 93 95 97 92 66 71 67 70 78 86 90 98 94 92 89 89 96 94 95 95 86 84 86 84 83 86 81 71 68 65 61 58 58 59
88 88 88 99 98 97 97 94 85 89 96 99 97 91 88 76 68 78 91 94 93 96 96 91 92 93 91 94 99 98 96 89 84 79 77 74 71 68 66 65 63 62 62 63
93 88 90 97 99 99 99 94 91 91 98 98 97 89 96 85 90 97 96 98 96 92 93 90 90 87 91 96 93 91 92 88 85 81 75 72 70 68 67 67 64 61 61 60
98 93 93 94 95 98 97 95 93 96 97 92 94 89 96 93 95 96 96 96 98 96 94 92 91 98 96 95 92 89 88 85 82 79 76 74 72 72 71 69 68 65 63 60
99 93 93 93 92 95 99 99 99 98 98 96 98 96 96 92 92 94 94 92 92 94 88 91 93 91 87 86 85 87 85 82 81 80 79 77 75 74 72 71 69 67 65 63
99 95 92 93 97 98 98 98 98 97 96 87 89 99 95 97 97 97 93 96 94 93 92 92 90 86 84 84 82 81 80 78 80 78 76 75 75 73 70 69 68 67 66 65
89 85 93 96 98 97 97 96 95 92 85 88 91 95 94 97 98 97 92 95 95 97 93 91 90 88 85 84 81 79 79 79 80 79 77 75 73 72 71 71 71 72 76 78
97 96 97 94 96 97 96 87 84 91 87 86 88 94 97 96 97 95 95 95 95 90 94 89 84 80 76 76 76 74 76 77 79 78 78 79 76 74 76 79 82 83 84 84
96 93 91 94 86 83 84 83 81 80 83 87 86 87 88 89 87 88 86 91 90 91 87 80 77 81 80 80 79 77 76 75 77 75 74 74 75 79 83 82 81 86 87 87
87 87 88 83 80 79 82 83 80 78 80 85 86 85 83 85 87 86 89 88 86 84 80 82 84 82 77 75 75 73 73 74 74 75 76 78 79 79 79 81 82 84 87 89
81 80 81 81 79 79 78 79 80 85 81 82 83 85 83 85 85 86 91 92 84 83 80 79 79 78 77 78 80 81 81 81 81 81 82 85 87 91 93 94 94 94 95 95
78 82 81 82 81 80 81 85 92 89 88 87 86 84 87 83 85 84 82 79 80 78 80 78 79 82 85 87 90 93 93 92 91 90 88 86 84 82 81 82 82 83 80 78

GFSNW_prec_cthk_075.txt.gz
RH
45 56 68 59 44 56 57 67 66 57 74 66 62 48 42 42 43 64 64 57 46 44 38 39 47 55 59 66 58 71 84 83 78 75 74 85 85 95 95 98 90 79 81 82
53 70 72 65 53 61 80 87 74 57 84 94 62 54 52 48 45 58 56 56 47 42 39 44 44 48 54 50 58 64 67 81 81 72 71 73 87 88 91 95 94 93 95 83
74 76 66 60 58 78 97 93 86 80 77 95 95 77 63 57 44 45 54 49 47 47 49 44 39 46 66 66 64 61 64 65 70 86 92 98 98 97 88 93 98 85 84 77
86 86 66 52 81 89 91 95 95 94 82 89 96 96 94 77 64 53 55 51 48 51 54 53 48 44 61 80 76 71 75 69 68 78 86 91 91 93 97 91 91 96 84 79
95 87 58 69 87 92 96 90 90 93 90 87 96 88 86 90 91 88 71 58 50 53 53 51 60 60 62 66 76 80 75 70 61 73 76 87 92 93 95 95 89 92 90 88
93 72 67 67 80 95 98 88 86 96 90 91 97 91 78 79 80 77 80 79 76 65 60 53 50 53 58 58 70 90 84 74 68 84 88 94 96 93 96 92 92 90 95 90
82 77 75 74 66 78 82 84 86 86 85 87 86 86 90 96 69 71 67 83 85 72 76 78 73 65 54 59 60 64 72 77 76 87 93 98 89 84 91 94 94 90 90 88
86 81 89 76 65 62 72 77 80 82 68 67 76 81 83 86 86 83 61 66 65 62 72 75 88 75 59 50 44 48 54 62 77 89 96 86 88 92 92 92 97 94 95 93
87 87 93 78 65 56 64 70 76 80 84 68 72 83 79 82 82 79 72 67 61 54 73 80 81 73 61 56 51 45 48 55 70 84 96 97 85 91 90 86 97 94 94 95
90 84 88 87 67 56 57 61 71 80 80 76 72 76 86 86 89 87 81 83 74 68 81 90 76 72 58 65 77 80 67 61 72 77 91 85 85 87 84 97 98 97 93 91
92 87 81 85 75 59 55 57 67 72 74 76 73 70 76 80 88 97 92 91 93 79 81 75 66 74 73 87 97 81 77 81 73 80 81 80 86 91 98 96 95 93 90 89
95 93 88 84 83 81 69 52 57 72 80 73 70 70 67 74 87 92 98 96 98 82 71 73 82 88 92 87 98 92 86 73 69 59 67 83 82 92 92 90 88 86 79 79
99 96 93 92 87 87 83 71 58 63 68 68 75 66 69 70 78 90 98 93 98 90 88 93 94 97 96 93 86 97 88 74 81 72 89 87 86 87 89 88 88 86 81 78
97 98 97 95 92 87 85 83 76 55 54 70 68 67 67 69 75 80 85 97 96 97 94 98 97 99 97 98 98 98 99 88 93 99 98 91 89 91 89 83 84 84 81 77
90 97 98 97 97 97 91 90 96 83 81 85 78 61 57 64 74 76 80 90 98 96 89 95 97 96 96 97 97 97 98 98 98 98 99 97 98 96 90 86 78 75 68 66
86 88 97 97 98 98 99 97 97 94 96 93 85 76 63 62 72 71 72 83 86 88 92 93 90 94 97 98 97 98 98 96 97 98 97 95 93 88 83 79 73 67 61 58
73 89 93 98 99 98 98 93 85 92 97 98 94 87 70 62 69 71 69 74 80 87 91 92 91 92 97 99 98 98 98 97 91 93 95 92 86 86 81 76 69 65 63 58
76 91 94 99 99 99 99 97 89 91 98 97 88 89 97 76 72 70 68 79 89 87 89 92 94 94 97 95 96 97 96 94 91 87 83 80 79 79 77 73 68 66 64 62
89 99 97 99 98 97 98 97 95 94 94 93 89 89 97 88 80 90 89 96 94 92 91 90 95 98 97 96 96 96 93 91 90 88 87 84 81 76 74 73 71 69 69 67
93 99 99 99 99 98 99 99 98 98 96 92 91 92 95 92 94 92 98 96 97 98 94 95 96 96 92 91 91 90 88 88 86 84 82 81 79 78 77 75 73 71 69 66
99 98 98 98 98 98 98 97 98 94 92 84 86 92 98 95 97 96 94 95 94 96 94 95 93 91 90 86 84 82 83 81 80 80 79 79 77 73 69 67 67 67 68 68
88 85 94 98 99 98 97 97 95 89 86 85 88 90 99 98 97 95 94 97 98 98 98 99 95 88 88 87 84 79 76 73 72 72 73 74 74 74 73 74 74 74 73 72
93 94 98 97 96 93 90 92 89 90 88 90 91 96 98 97 99 97 97 96 97 93 96 96 91 92 89 84 83 79 77 74 72 72 73 73 74 73 72 72 73 74 75 77
94 88 88 91 85 84 83 81 81 84 86 87 91 95 94 96 95 95 90 94 94 96 93 89 88 86 84 82 78 75 73 71 69 69 69 69 70 70 71 71 74 75 77 79
86 80 84 84 77 80 81 83 82 84 86 85 86 88 88 91 90 88 86 88 92 91 88 87 88 85 81 78 76 74 72 72 72 72 72 72 72 72 73 75 77 79 81 83
81 81 82 81 78 79 79 80 80 80 86 85 82 83 84 86 84 82 86 89 90 90 88 85 81 77 76 77 77 77 76 75 76 77 80 80 79 77 76 75 75 75 75 72
86 88 85 81 79 78 77 77 77 77 81 81 82 80 83 81 79 80 83 84 86 85 80 78 76 76 79 81 82 84 85 83 80 75 68 63 61 61 61 60 57 53 53 53

GFSNW_prec_cthk_081.txt.gz
RH
27 28 28 30 34 45 54 66 77 67 70 67 62 56 51 52 44 39 41 47 63 92 97 86 77 79 73 75 81 81 77 73 66 60 53 60 65 76 93 99 98 93 91 78
32 31 35 40 40 54 68 81 77 56 55 71 80 81 74 70 58 46 40 51 73 90 97 96 80 80 85 85 81 85 81 73 68 45 59 69 78 85 94 98 98 93 94 72
33 30 34 42 48 71 83 89 70 59 69 68 73 80 74 78 61 52 49 52 52 64 93 93 82 79 75 71 74 79 70 66 63 59 50 57 68 79 85 94 98 94 88 73
28 26 31 49 74 86 92 79 71 74 66 84 92 83 68 69 62 56 53 53 63 71 96 92 77 79 81 81 82 69 63 63 65 62 56 51 58 70 69 79 82 89 69 85
32 34 44 73 90 96 86 78 81 75 86 89 97 95 98 96 89 78 60 58 68 85 96 88 85 76 73 76 67 60 63 68 66 65 57 54 52 47 57 70 76 82 76 79
32 42 67 90 97 92 78 79 83 89 86 88 92 94 97 95 99 82 71 77 80 83 79 75 72 69 66 66 58 57 61 60 65 67 59 53 50 57 68 82 85 81 81 71
39 56 90 95 94 86 83 76 82 89 86 87 88 92 94 97 98 99 93 84 87 75 71 63 54 49 50 51 52 56 61 62 63 66 58 59 44 55 70 91 91 89 79 73
49 78 98 95 92 89 87 75 72 80 81 85 90 85 90 91 96 96 94 98 97 84 79 66 58 53 48 46 44 50 50 58 64 69 65 41 34 59 90 99 95 93 91 87
80 94 97 93 87 89 91 71 64 67 74 71 79 84 86 88 97 95 91 91 94 86 78 67 67 71 62 56 52 54 57 55 63 67 67 55 43 60 84 87 97 98 89 93
86 92 95 88 84 89 83 70 64 64 70 62 69 73 75 83 88 94 95 85 89 81 80 78 73 64 55 59 52 52 63 66 68 66 67 50 41 69 87 98 98 97 98 97
85 89 92 85 85 85 84 64 66 58 60 56 65 68 74 79 81 87 80 77 76 85 85 72 60 68 62 61 54 58 66 75 74 73 76 61 53 80 97 98 98 98 98 98
88 87 89 88 83 82 80 70 67 61 60 56 61 62 63 65 66 76 79 80 92 97 82 72 74 73 71 73 79 79 87 85 89 81 78 71 76 92 94 98 97 98 98 98
92 92 91 92 91 82 79 71 68 63 60 55 47 43 48 50 50 61 81 83 93 98 99 90 84 79 93 95 95 96 98 98 94 89 82 74 86 91 97 98 98 97 97 96
95 96 96 96 95 88 82 79 73 69 61 53 37 41 42 43 44 51 65 75 84 85 93 89 85 95 97 98 97 97 98 98 95 94 95 93 98 98 98 98 97 96 96 97
95 97 99 99 97 93 85 85 80 77 65 52 46 41 45 42 41 52 63 70 76 88 84 86 91 95 99 98 98 95 96 98 97 97 98 98 98 98 98 98 97 95 92 91
85 87 98 99 98 97 90 86 83 83 78 68 59 51 55 57 46 48 62 74 82 87 86 85 89 94 98 98 97 96 94 97 98 98 98 98 98 97 97 96 95 91 84 78
76 80 90 99 98 95 92 82 83 88 94 91 80 77 72 71 64 55 66 80 83 85 85 84 93 97 99 98 97 97 97 97 98 98 98 97 98 96 94 92 90 88 83 75
76 75 85 96 98 98 95 94 96 97 97 95 90 83 80 80 73 70 79 83 83 86 77 84 94 95 97 96 97 97 97 97 98 98 97 95 93 94 94 91 87 82 80 76
85 85 85 91 96 95 94 98 98 97 97 94 88 89 95 94 87 80 85 78 83 80 85 92 93 93 95 96 93 93 92 91 92 91 87 86 85 86 86 86 85 81 78 76
88 85 82 89 94 98 98 99 98 98 94 91 86 82 87 90 85 78 79 79 81 88 91 94 89 91 89 90 90 88 84 81 80 81 82 80 79 78 77 77 77 76 74 73
87 85 87 86 97 98 98 97 96 90 83 80 86 87 79 88 86 82 87 89 89 94 97 95 92 89 89 88 86 83 81 78 75 75 74 74 72 72 74 74 75 74 75 75
80 81 77 94 99 98 97 93 92 81 74 79 86 84 77 82 96 86 87 95 97 97 99 97 94 90 90 90 87 81 77 76 76 75 74 73 72 71 71 70 69 70 70 69
95 94 98 99 97 95 89 87 85 75 70 78 85 91 90 89 91 88 90 95 96 95 95 96 91 86 85 83 81 78 76 75 73 72 70 69 68 67 66 65 64 64 64 65
96 98 98 97 94 85 77 72 69 73 80 84 87 93 98 94 91 93 90 90 90 88 83 79 78 78 78 76 75 74 74 70 68 67 66 65 64 64 64 64 64 62 60 59
95 89 91 90 78 75 75 74 75 78 82 86 94 96 98 95 91 87 84 88 88 82 79 80 81 83 80 78 76 74 71 68 67 67 67 67 67 65 60 58 57 56 56 53
85 86 87 78 79 79 79 79 81 86 87 90 92 95 93 92 89 85 85 86 83 81 80 82 83 82 80 77 72 69 70 73 76 77 74 64 57 53 50 48 46 44 42 41
85 84 85 82 81 82 83 81 82 87 88 88 85 85 88 86 86 86 84 84 79 77 81 80 79 76 70 70 75 82 83 74 60 51 49 48 49 50 50 50 49 48 46 44

GFSNW_prec_cthk_087.txt.gz
RH
18 21 20 20 27 24 26 27 33 39 43 52 65 72 75 70 64 65 61 55 48 42 38 61 84 92 93 98 99 80 70 65 70 73 68 67 69 69 67 74 76 80 78 58
22 25 24 22 25 26 29 33 39 48 55 62 66 59 57 60 60 62 61 56 49 44 56 70 71 91 88 98 96 82 69 69 62 77 73 70 72 83 84 74 75 72 80 60
28 27 25 22 24 31 35 44 51 55 64 62 61 65 65 68 65 69 72 57 50 45 46 60 73 86 88 98 97 89 75 72 62 51 54 55 59 58 58 67 68 57 58 51
26 22 20 21 24 34 45 53 60 62 58 56 61 72 80 83 83 79 81 66 55 47 55 66 78 90 97 98 96 89 80 79 76 69 56 51 49 48 47 49 45 53 37 48
20 23 26 30 35 42 52 61 63 60 54 59 70 74 82 90 96 96 91 83 65 55 70 71 94 93 96 95 94 87 81 82 72 64 53 46 43 35 38 46 47 45 45 47
27 32 30 36 43 50 58 67 67 57 52 62 68 71 84 96 98 90 82 72 67 58 64 80 88 88 94 91 90 82 80 76 74 65 51 39 34 40 38 40 46 53 48 42
33 29 27 37 50 62 68 69 63 59 58 60 63 68 85 92 97 92 82 72 64 63 72 88 85 86 81 80 75 79 76 73 72 62 55 41 42 40 45 48 46 46 54 59
25 25 38 50 64 73 73 73 65 61 60 61 54 67 84 92 94 98 90 73 76 75 77 90 82 77 66 58 61 66 67 69 65 64 55 40 44 58 47 50 49 68 72 69
26 27 41 58 73 79 77 71 66 68 67 53 60 65 73 86 91 92 96 96 93 97 82 78 75 73 67 60 64 67 61 61 60 61 54 48 34 42 44 53 72 78 75 75
28 32 49 61 75 80 78 70 66 64 65 57 57 65 68 82 89 92 90 95 96 93 85 78 76 70 67 62 55 60 64 62 61 58 60 49 56 54 55 73 87 88 85 91
27 42 54 65 76 78 77 72 68 66 61 52 56 55 56 62 75 87 86 88 91 93 90 88 86 81 74 70 69 69 67 72 68 61 68 63 70 66 70 91 93 95 95 97
37 52 62 72 78 78 79 73 70 65 62 50 47 47 45 51 64 80 87 94 96 95 95 93 88 77 77 80 80 83 84 85 82 85 86 87 84 78 74 93 98 98 97 97
50 66 71 78 78 80 80 78 73 65 62 50 43 35 34 38 48 56 72 84 89 93 92 97 90 83 86 89 89 86 77 81 92 94 95 95 88 80 76 95 98 98 97 97
62 71 76 83 82 81 84 80 74 66 60 58 42 34 34 36 40 49 52 65 78 84 87 91 88 92 97 97 95 91 87 89 93 97 98 92 88 87 89 97 98 97 97 97
69 78 88 93 93 86 87 85 77 71 67 59 47 38 34 37 36 42 50 56 72 83 81 82 87 97 97 98 94 93 91 95 94 95 95 96 97 95 94 97 97 97 97 97
76 86 95 97 96 91 91 88 78 74 70 65 55 44 39 40 39 39 45 56 69 82 84 80 84 92 96 97 95 94 90 95 96 97 97 96 97 97 97 97 97 97 97 94
85 94 98 98 97 94 92 84 79 73 78 77 68 57 48 50 49 45 48 54 66 77 79 83 86 92 98 97 96 97 95 95 97 97 96 97 97 97 97 97 97 97 95 93
93 98 99 98 94 97 94 91 80 82 86 81 83 70 62 65 65 62 59 62 72 79 79 82 85 91 97 97 97 97 97 97 97 97 97 97 96 96 93 92 93 93 91 90
98 99 98 90 90 97 96 94 89 92 94 93 91 84 83 83 76 68 63 68 78 78 78 79 85 92 93 96 97 96 96 95 96 96 94 91 88 82 79 79 79 79 80 81
99 98 92 85 89 97 97 97 93 94 93 92 90 88 88 85 87 75 70 79 78 80 82 90 87 88 89 91 92 92 87 81 84 80 77 75 72 70 69 69 69 69 70 71
98 94 87 84 90 98 98 96 93 93 90 85 81 82 84 86 92 84 74 86 82 83 86 93 90 86 85 87 86 84 80 79 75 73 72 71 70 69 68 68 68 67 66 66
93 88 91 89 91 95 94 92 87 86 82 76 75 76 82 90 93 86 84 90 91 93 94 96 91 87 87 85 84 82 79 76 73 72 70 69 67 66 66 65 65 64 63 63
97 94 94 94 91 93 88 76 80 81 74 72 76 82 88 94 92 92 93 92 93 95 97 91 88 88 85 81 79 76 75 73 71 69 67 65 64 63 62 62 62 60 56 52
95 93 93 84 86 78 69 62 69 70 69 73 84 86 89 86 96 96 89 88 87 83 89 84 84 88 84 79 75 74 72 71 70 68 64 62 61 62 63 60 54 50 45 41
98 88 84 76 72 65 60 71 77 76 71 77 87 91 95 95 97 93 91 88 83 85 84 79 81 80 78 76 77 76 75 74 69 66 68 68 64 54 45 40 36 33 33 35
96 82 79 72 67 66 72 76 79 74 73 79 87 97 96 97 91 87 86 87 86 80 79 79 79 79 79 77 76 76 71 68 69 66 56 48 42 39 38 40 42 42 40 38
91 87 76 70 66 69 78 81 80 78 76 80 88 91 92 93 89 87 85 84 79 78 79 79 79 77 78 76 71 70 71 62 52 47 44 44 46 47 47 46 42 41 40 38